sat.trackr.live / text

‹ back to catalog

STARLINK-30505

NORAD 57972 · 2023-151J

PAYLOAD ACTIVE UNKNOWN

§ Identity

Operator
Country
US
Launch date
2023-09-30
Launch site
AFETR
Launch vehicle
Mass (kg)
RCS (m²)

Purposes: comms

External: N2YO · Heavens-Above · Gunter

§ Orbital elements

Epoch: 2026-05-24T17:40:33.127392Z

Period
94.27 min
Inclination
43.0024°
Eccentricity
0.0001949
Mean motion
15.27598536 rev/d
Perigee alt
481.7 km
Apogee alt
484.3 km
Semi-major
6,861.1 km
B*
8.7200e-4
RAAN
266.7858°
Arg perigee
266.7215°
Mean anomaly
93.3414°
Rev number
14,739

§ Raw data

STARLINK-305051 57972U 23151J   26144.73649453  .00023825  00000+0  87200-3 0  99992 57972  43.0024 266.7858 0001949 266.7215  93.3414 15.27598536147398

JSON: /api/v1/satellites/57972 · /tle

For live sub-satellite position, see the globe view (requires WebGL).

§ Visibility from observer

Set your observer location to see the next 7 days of passes ≥ 10°. The values pass through the URL so the page stays shareable.

No JS? Fill the form by hand. The geolocation button needs JavaScript.